Change the Weather History Date:

Saturday, January 4, 2014

  Actual Average Record
Temperature  
Mean Temperature 15 °F -  
Max Temperature 24 °F 24 °F 43 °F (1990)
Min Temperature 5 °F 4 °F -24 °F (1981)
Degree Days  
Heating Degree Days 50    
Moisture  
Dew Point 10 °F    
Average Humidity 76    
Maximum Humidity 86    
Minimum Humidity 62    
Precipitation  
Precipitation 0.04 in - - ()
Sea Level Pressure  
Sea Level Pressure 29.69 in    
Wind  
Wind Speed 10 mph (SSW)    
Max Wind Speed 18 mph    
Max Gust Speed 30 mph    
Visibility 6 miles    
Events Snow    
Averages and records for this station are not official NWS values.
T = Trace of Precipitation, MM = Missing Value Source: NWS Daily Summary

Daily Weather History Graph

Daily Weather History Graph

Search for Another Location

Airport or City:

Trip Planner

Search our weather history database for the weather conditions in past years. The results will help you decide how hot, cold, wet, or windy it might be!

Date:

Astronomy

Jan. 04, 2014 Rise Set
Actual Time 7:33 AM CST 4:21 PM CST
Civil Twilight 6:59 AM CST 4:55 PM CST
Nautical Twilight 6:21 AM CST 5:33 PM CST
Astronomical Twilight 5:45 AM CST 6:09 PM CST
Moon 9:26 AM CST 8:55 PM CST
Length of Visible Light 9h 56m
Length of Day
8h 47m
Waxing Crescent, 15% of the Moon is Illuminated
Jan 4
Waxing Crescent
Jan 7
First Quarter
Jan 15
Full
Jan 23
Last Quarter
Jan 30
New

Hourly Weather History & Observations

Time (CST) Temp. Windchill Dew Point Humidity Pressure Visibility Wind Dir Wind Speed Gust Speed Precip Events Conditions
12:54 AM 16.0 °F 0.6 °F 10.0 °F 77% 29.59 in 3.0 mi South 16.1 mph 20.7 mph 0.00 in Snow Light Snow
1:00 AM 15.8 °F 2.1 °F 10.4 °F 79% 29.51 in 1.8 mi South 12.7 mph 20.7 mph 0.00 in Snow Light Snow
1:44 AM 15.8 °F 4.2 °F 12.2 °F 86% 29.49 in 1.2 mi South 9.2 mph - 0.00 in Snow Light Snow
1:54 AM 16.0 °F 2.3 °F 12.0 °F 84% 29.57 in 1.5 mi South 12.7 mph 18.4 mph 0.00 in Snow Light Snow
2:07 AM 17.6 °F 5.7 °F 10.4 °F 73% 29.49 in 3.0 mi South 10.4 mph 18.4 mph 0.00 in Snow Light Snow
2:28 AM 17.6 °F 5.7 °F 10.4 °F 73% 29.49 in 2.0 mi South 10.4 mph - 0.00 in Snow Light Snow
2:40 AM 17.6 °F 7.3 °F 10.4 °F 73% 29.49 in 4.0 mi South 8.1 mph 17.3 mph 0.00 in Snow Light Snow
2:54 AM 18.0 °F 8.7 °F 12.0 °F 78% 29.57 in 2.0 mi South 6.9 mph - 0.00 in Snow Light Snow
3:03 AM 17.6 °F 8.2 °F 12.2 °F 79% 29.50 in 1.2 mi South 6.9 mph - 0.01 in Snow Light Snow
3:16 AM 17.6 °F 9.3 °F 12.2 °F 79% 29.49 in 1.0 mi South 5.8 mph - 0.02 in Snow Light Snow
3:25 AM 17.6 °F 8.2 °F 14.0 °F 86% 29.49 in 0.8 mi SSE 6.9 mph - 0.02 in Snow Light Snow
3:38 AM 17.6 °F 7.3 °F 12.2 °F 79% 29.48 in 1.0 mi SSE 8.1 mph - 0.03 in Snow Light Snow
3:54 AM 17.1 °F 5.8 °F 12.9 °F 84% 29.55 in 1.2 mi South 9.2 mph - 0.03 in Snow Light Snow
4:50 AM 17.6 °F 7.3 °F 14.0 °F 86% 29.48 in 2.0 mi South 8.1 mph - 0.01 in Snow Light Snow
4:54 AM 18.0 °F 8.7 °F 14.0 °F 84% 29.56 in 1.8 mi South 6.9 mph - 0.01 in Snow Light Snow
5:27 AM 17.6 °F 7.3 °F 14.0 °F 86% 29.48 in 3.0 mi South 8.1 mph - 0.00 in Snow Light Snow
5:42 AM 17.6 °F 8.2 °F 14.0 °F 86% 29.49 in 4.0 mi South 6.9 mph - 0.00 in Snow Light Snow
5:54 AM 18.0 °F 7.7 °F 14.0 °F 84% 29.57 in 4.0 mi South 8.1 mph - 0.00 in Snow Light Snow
6:02 AM 17.6 °F 7.3 °F 14.0 °F 86% 29.49 in 2.5 mi South 8.1 mph - 0.00 in Snow Light Snow
6:10 AM 17.6 °F 8.2 °F 14.0 °F 86% 29.49 in 2.0 mi South 6.9 mph - 0.00 in Snow Light Snow
6:32 AM 17.6 °F 9.3 °F 14.0 °F 86% 29.49 in 2.0 mi SSE 5.8 mph - 0.00 in Snow Light Snow
6:40 AM 17.6 °F 9.3 °F 14.0 °F 86% 29.50 in 4.0 mi South 5.8 mph - 0.00 in Snow Light Snow
6:54 AM 19.0 °F 11.1 °F 15.1 °F 85% 29.58 in 9.0 mi South 5.8 mph - 0.00 in   Overcast
7:06 AM 19.4 °F 9.5 °F 14.0 °F 80% 29.52 in 10.0 mi South 8.1 mph - N/A   Overcast
7:54 AM 19.0 °F 13.9 °F 14.0 °F 81% 29.60 in 10.0 mi South 3.5 mph - N/A   Overcast
8:26 AM 19.4 °F 10.4 °F 15.8 °F 86% 29.57 in 10.0 mi South 6.9 mph - N/A   Overcast
8:54 AM 19.9 °F 11.1 °F 15.1 °F 81% 29.65 in 10.0 mi South 6.9 mph - N/A   Overcast
9:54 AM 21.0 °F 14.6 °F 17.1 °F 85% 29.67 in 7.0 mi South 4.6 mph - N/A   Overcast
10:54 AM 24.1 °F 14.4 °F 18.0 °F 77% 29.69 in 5.0 mi WNW 9.2 mph - N/A   Haze
11:54 AM 21.9 °F 7.3 °F 14.0 °F 72% 29.73 in 6.0 mi NW 18.4 mph 29.9 mph N/A   Haze
12:54 PM 19.9 °F 4.8 °F 9.0 °F 62% 29.78 in 8.0 mi WNW 18.4 mph 23.0 mph 0.00 in Snow Light Snow
1:54 PM 18.0 °F 4.2 °F 9.0 °F 68% 29.81 in 10.0 mi NNW 13.8 mph - 0.00 in   Overcast
2:54 PM 17.1 °F 4.3 °F 6.1 °F 62% 29.88 in 10.0 mi WNW 11.5 mph 23.0 mph N/A   Overcast
3:54 PM 16.0 °F 2.9 °F 5.0 °F 62% 29.92 in 10.0 mi West 11.5 mph - N/A   Overcast
4:26 PM 14.0 °F 1.2 °F 3.2 °F 62% 29.87 in 10.0 mi NW 10.4 mph - N/A   Scattered Clouds
4:54 PM 12.0 °F -1.3 °F 3.0 °F 67% 29.97 in 10.0 mi NW 10.4 mph - N/A   Clear
5:54 PM 10.0 °F -3.7 °F 1.9 °F 70% 29.98 in 10.0 mi NW 10.4 mph - N/A   Clear
6:14 PM 10.4 °F -1.5 °F 1.4 °F 67% 29.92 in 10.0 mi NW 8.1 mph - N/A   Mostly Cloudy
6:54 PM 12.0 °F 1.5 °F 3.0 °F 67% 30.02 in 10.0 mi West 6.9 mph - N/A   Overcast
7:54 PM 10.9 °F -5.4 °F 1.9 °F 67% 30.04 in 10.0 mi NW 15.0 mph 19.6 mph N/A   Mostly Cloudy
8:06 PM 10.4 °F -4.8 °F 1.4 °F 67% 29.97 in 10.0 mi NW 12.7 mph - N/A   Scattered Clouds
8:38 PM 10.4 °F -1.5 °F -0.4 °F 62% 29.98 in 10.0 mi WNW 8.1 mph - N/A   Mostly Cloudy
8:54 PM 10.0 °F 0.4 °F 1.0 °F 67% 30.06 in 10.0 mi WNW 5.8 mph - N/A   Overcast
9:54 PM 9.0 °F - 1.0 °F 70% 30.07 in 10.0 mi Calm Calm - N/A   Overcast
10:54 PM 6.1 °F - -0.0 °F 76% 30.07 in 10.0 mi Calm Calm - N/A   Overcast
11:54 PM 5.0 °F - -0.9 °F 76% 30.09 in 10.0 mi Calm Calm - N/A   Overcast